Regional Weather Roundup
Issued by NWS

Home | Current Version | Previous Version | Text Only | Print | Product List | Glossary Off
Versions: 1 2 3 4 5 6 7 8 9 10 11 12 13 14 15 16 17 18 19 20 21 22 23 24 25 26 27 28 29 30 31 32 33 34 35 36 37 38 39 40 41 42 43 44 45 46 47 48 49 50

000
ASUS43 KBIS 040320
RWRND

NORTH DAKOTA REGIONAL WEATHER ROUNDUP
NATIONAL WEATHER SERVICE BISMARCK ND
1000 PM CDT SUN MAY 03 2015

NOTE: "FAIR" INDICATES FEW OR NO CLOUDS BELOW 12,000 FEET WITH NO
SIGNIFICANT WEATHER AND/OR OBSTRUCTIONS TO VISIBILITY.


NDZ001>003-009>011-017-040400-
NORTHWEST NORTH DAKOTA

CITY           SKY/WX    TMP DP  RH WIND       PRES   REMARKS
WILLISTON      CLEAR     47  20  34 NE5       30.08R
MINOT          CLEAR     48  25  40 NW9       30.06R
MINOT AFB      CLEAR     44  25  47 NW6       30.05R
$$

NDZ018>021-031>035-040>046-040400-
SOUTHWEST NORTH DAKOTA

CITY           SKY/WX    TMP DP  RH WIND       PRES   REMARKS
BISMARCK       MOCLDY    57  22  25 N10       30.06R
DICKINSON      MOCLDY    54  24  31 CALM      30.07R
GARRISON         N/A     46  27  47 N6        30.06R
HETTINGER ARPT PTCLDY    46  27  47 NE10      30.08R
$$

NDZ004>008-012>016-024-026-027-054-040400-
NORTHEAST NORTH DAKOTA

CITY           SKY/WX    TMP DP  RH WIND       PRES   REMARKS
GRAND FORKS    PTCLDY    49  28  44 NW10      29.97R
GRND FRKS AFB  PTCLDY    53  26  35 NW8       29.99R
DEVILS LAKE    CLEAR     46  28  49 NW7       30.03R
$$

NDZ022-023-025-028>030-036>039-047>053-040400-
SOUTHEAST NORTH DAKOTA

CITY           SKY/WX    TMP DP  RH WIND       PRES   REMARKS
FARGO          CLEAR     58  24  27 NW13      29.97R
JAMESTOWN      PTCLDY    46  24  42 N6        30.02R
$$




USA.gov is the U.S. government's official web portal to all federal, state and local government web resources and services.